Oakland, CA

10:58 PM PDT on October 20, 2019 (GMT -0700)
Metro Oakland International

Weather History for KOAK - August, 2019

Change the Weather History Date:

Sunday, August 11, 2019

  Actual Average Record
Temperature  
Mean Temperature 72 °F 64 °F  
Max Temperature 82 °F 71 °F 86 °F (1998)
Min Temperature 61 °F 56 °F 51 °F (2005)
Degree Days  
Heating Degree Days 0 2  
Month to date heating degree days 0 23  
Since 1 June heating degree days 47 209  
Since 1 July heating degree days 15 106  
Cooling Degree Days 7 1  
Month to date cooling degree days 32 3  
Year to date cooling degree days 158 55  
Since 1 June cooling degree days 149 39  
Growing Degree Days 21 (Base 50)    
Moisture  
Dew Point 57 °F    
Average Humidity 65    
Maximum Humidity 84    
Minimum Humidity 45    
Precipitation  
Precipitation 0.00 in 0.00 in 0.06 in (1965)
Month to date precipitation T 0.01  
Year to date precipitation 15.71 13.24  
Sea Level Pressure  
Sea Level Pressure 30.03 in    
Wind  
Wind Speed 8 mph (West)    
Max Wind Speed 21 mph    
Max Gust Speed 24 mph    
Visibility 10 miles    
Events      
T = Trace of Precipitation, MM = Missing Value Source: NWS Daily Summary

Daily Weather History Graph

Daily Weather History Graph

Search for Another Location

Airport or City:

Astronomy

Aug. 11, 2019 Rise Set
Actual Time 6:20 AM PDT 8:06 PM PDT
Civil Twilight 5:52 AM PDT 8:34 PM PDT
Nautical Twilight 5:18 AM PDT 9:08 PM PDT
Astronomical Twilight 4:42 AM PDT 9:45 PM PDT
Moon 5:48 PM PDT (8/11) 2:48 AM PDT (8/11)
Length of Visible Light 14h 42m
Length of Day
13h 45m
Waxing Gibbous, 87% of the Moon is Illuminated
Aug 11
Waxing Gibbous
Aug 15
Full
Aug 23
Last Quarter
Aug 30
New
Sep 5
First Quarter

Hourly Weather History & Observations

Time (PDT) Temp. Heat Index Dew Point Humidity Pressure Visibility Wind Dir Wind Speed Gust Speed Precip Events Conditions
12:53 AM 63.0 °F - 57.9 °F 84% 30.04 in 10.0 mi West 5.8 mph - N/A   Overcast
1:53 AM 63.0 °F - 57.9 °F 84% 30.03 in 10.0 mi West 4.6 mph - N/A   Overcast
2:53 AM 62.1 °F - 57.0 °F 84% 30.03 in 10.0 mi Calm Calm - N/A   Overcast
3:53 AM 62.1 °F - 57.0 °F 84% 30.02 in 10.0 mi NW 3.5 mph - N/A   Overcast
4:53 AM 62.1 °F - 57.0 °F 84% 30.02 in 10.0 mi South 3.5 mph - N/A   Overcast
5:53 AM 62.1 °F - 57.0 °F 84% 30.03 in 10.0 mi Calm Calm - N/A   Overcast
6:53 AM 62.1 °F - 57.0 °F 84% 30.04 in 10.0 mi West 4.6 mph - N/A   Overcast
7:53 AM 63.0 °F - 57.0 °F 81% 30.06 in 10.0 mi West 4.6 mph - N/A   Mostly Cloudy
8:53 AM 64.0 °F - 57.0 °F 78% 30.06 in 10.0 mi West 5.8 mph - N/A   Mostly Cloudy
8:55 AM 64.9 °F - 57.9 °F 78% 30.07 in 10.0 mi West 4.6 mph - N/A   Mostly Cloudy
9:21 AM 64.9 °F - 57.9 °F 78% 30.07 in 10.0 mi WSW 3.5 mph - N/A   Scattered Clouds
9:53 AM 66.0 °F - 57.9 °F 75% 30.07 in 10.0 mi SW 5.8 mph - N/A   Partly Cloudy
10:53 AM 66.9 °F - 59.0 °F 76% 30.08 in 10.0 mi SW 6.9 mph - N/A   Partly Cloudy
11:53 AM 71.1 °F - 57.9 °F 63% 30.07 in 10.0 mi WSW 8.1 mph - N/A   Partly Cloudy
12:53 PM 77.0 °F - 57.0 °F 50% 30.05 in 10.0 mi West 6.9 mph - N/A   Partly Cloudy
1:53 PM 78.1 °F - 60.1 °F 54% 30.03 in 10.0 mi West 10.4 mph - N/A   Partly Cloudy
2:53 PM 80.1 °F 80.7 °F 59.0 °F 48% 30.01 in 10.0 mi West 19.6 mph - N/A   Partly Cloudy
3:53 PM 78.1 °F - 57.0 °F 48% 30.01 in 10.0 mi West 19.6 mph - N/A   Partly Cloudy
4:53 PM 78.1 °F - 55.9 °F 46% 29.99 in 10.0 mi West 16.1 mph - N/A   Partly Cloudy
5:53 PM 75.0 °F - 55.9 °F 51% 29.99 in 10.0 mi WNW 13.8 mph - N/A   Partly Cloudy
6:53 PM 73.0 °F - 57.0 °F 57% 29.99 in 10.0 mi West 11.5 mph - N/A   Partly Cloudy
7:53 PM 70.0 °F - 57.0 °F 63% 29.99 in 10.0 mi West 13.8 mph - N/A   Partly Cloudy
8:53 PM 66.9 °F - 57.0 °F 70% 30.00 in 10.0 mi West 13.8 mph - N/A   Partly Cloudy
9:53 PM 64.9 °F - 57.0 °F 75% 30.01 in 10.0 mi NW 6.9 mph - N/A   Partly Cloudy
10:53 PM 64.0 °F - 57.0 °F 78% 30.00 in 10.0 mi West 4.6 mph - N/A   Partly Cloudy
11:53 PM 62.1 °F - 55.0 °F 78% 30.00 in 10.0 mi Calm Calm - N/A   Partly Cloudy